Location: Cahas Mountain Overlook
(37.0833°N, 80.1000°W)
Time: 19:36:04
(UTC-04:00)

Explorer 7 - Pass Details

Date: 15 February 2026
Orbit: 430 x 541 km, 50.2° (Epoch: 13 March)

Event Time Altitude Azimuth Distance (km) Brightness Sun altitude
Rises 00:26:16 0° 286° (WNW) 2,649 - -65.5°
Reaches altitude 10° 00:29:43 10° 255° (WSW) 1,778 - -65.6°
Maximum altitude 00:31:17 12° 232° (SW) 1,658 - -65.6°
Drops below altitude 10° 00:32:52 10° 209° (SSW) 1,789 - -65.6°
Sets 00:36:22 0° 178° (S) 2,685 - -65.6°
